Weather History for Olean, NY

Change the Weather History Date:

Thursday, August 8, 2013

  Actual Average (KBFD) Record (KBFD)
Temperature  
Mean Temperature 68 °F 65 °F  
Max Temperature 77 °F 77 °F 92 °F (2001)
Min Temperature 60 °F 53 °F 39 °F (2002)
Degree Days  
Heating Degree Days 0 0  
Month to date heating degree days 0  
Since 1 June heating degree days 209  
Since 1 July heating degree days 64  
Cooling Degree Days 4 2  
Month to date cooling degree days 16  
Year to date cooling degree days 140  
Since 1 June cooling degree days 130  
Growing Degree Days 18 (Base 50)    
Moisture  
Dew Point 65 °F    
Average Humidity 90    
Maximum Humidity 100    
Minimum Humidity 74    
Precipitation  
Precipitation 0.00 in 0.13 in 0.61 in (2007)
Month to date precipitation 1.08  
Year to date precipitation 26.92  
Sea Level Pressure  
Sea Level Pressure 30.02 in    
Wind  
Wind Speed 5 mph (SSW)    
Max Wind Speed 10 mph    
Max Gust Speed -    
Visibility 9 miles    
Events Fog , Rain , Thunderstorm    
T = Trace of Precipitation, MM = Missing Value Source: NWS Daily Summary

Daily Weather History Graph

Daily Weather History Graph

Search for Another Location

Airport:

Trip Planner

Search our weather history database for the weather conditions in past years. The results will help you decide how hot, cold, wet, or windy it might be!

Date:

Astronomy

Aug. 08, 2013 Rise Set
Actual Time 6:13 AM EDT 8:23 PM EDT
Civil Twilight 5:42 AM EDT 8:54 PM EDT
Nautical Twilight 5:04 AM EDT 9:32 PM EDT
Astronomical Twilight 4:22 AM EDT 10:14 PM EDT
Moon 8:02 AM EDT (8/8) 8:57 PM EDT (8/8)
Length of Visible Light 15h 11m
Length of Day
14h 09m
Waxing Crescent, 3% of the Moon is Illuminated
Aug 8
Waxing Crescent
Aug 14
First Quarter
Aug 20
Full
Aug 28
Last Quarter
Sep 5
New

Hourly Weather History & Observations

Time (EDT) Temp. Dew Point Humidity Pressure Visibility Wind Dir Wind Speed Gust Speed Precip Events Conditions
12:15 AM 62.6 °F 59.0 °F 88% 30.02 in 10.0 mi SSW 6.9 mph - N/A   Clear
12:35 AM 62.6 °F 59.0 °F 88% 30.02 in 10.0 mi SSW 6.9 mph - N/A   Scattered Clouds
12:55 AM 62.6 °F 59.0 °F 88% 30.01 in 10.0 mi South 6.9 mph - N/A   Scattered Clouds
1:15 AM 60.8 °F 59.0 °F 94% 30.01 in 10.0 mi SSW 4.6 mph - N/A   Clear
1:35 AM 60.8 °F 59.0 °F 94% 30.01 in 10.0 mi SSW 5.8 mph - N/A   Clear
1:55 AM 60.8 °F 59.0 °F 94% 30.00 in 10.0 mi SSW 4.6 mph - N/A   Clear
2:15 AM 60.8 °F 60.8 °F 100% 30.01 in 10.0 mi SSW 4.6 mph - N/A   Clear
2:35 AM 60.8 °F 60.8 °F 100% 30.01 in 10.0 mi SSW 3.5 mph - N/A Thunderstorm Clear
2:55 AM 60.8 °F 60.8 °F 100% 30.00 in 10.0 mi South 5.8 mph - N/A   Scattered Clouds
3:15 AM 60.8 °F 60.8 °F 100% 29.99 in 10.0 mi SSW 4.6 mph - N/A Thunderstorm Mostly Cloudy
3:35 AM 62.6 °F 60.8 °F 94% 29.99 in 10.0 mi SSW 6.9 mph - N/A Thunderstorm Mostly Cloudy
3:55 AM 60.8 °F 60.8 °F 100% 29.99 in 10.0 mi SSW 3.5 mph - N/A Thunderstorm Mostly Cloudy
4:15 AM 62.6 °F 60.8 °F 94% 29.99 in 10.0 mi South 3.5 mph - N/A Rain , Thunderstorm Thunderstorms and Rain
4:35 AM 60.8 °F 60.8 °F 100% 30.01 in 7.0 mi Calm Calm - N/A Rain , Thunderstorm Thunderstorms and Rain
4:55 AM 60.8 °F 60.8 °F 100% 30.02 in 4.0 mi Calm Calm - N/A Rain , Thunderstorm Heavy Thunderstorms and Rain
5:15 AM 60.8 °F 60.8 °F 100% 30.03 in 1.8 mi NW 5.8 mph - N/A Rain , Thunderstorm Heavy Thunderstorms and Rain
5:35 AM 62.6 °F 62.6 °F 100% 30.03 in 5.0 mi Calm Calm - N/A Rain , Thunderstorm Thunderstorms and Rain
5:55 AM 62.6 °F 62.6 °F 100% 30.02 in 7.0 mi Calm Calm - N/A Rain , Thunderstorm Light Thunderstorms and Rain
6:15 AM 60.8 °F 60.8 °F 100% 30.01 in 4.0 mi Calm Calm - N/A Thunderstorm Overcast
6:35 AM 62.6 °F 62.6 °F 100% 30.01 in 10.0 mi SSW 3.5 mph - N/A Thunderstorm Overcast
6:55 AM 62.6 °F 62.6 °F 100% 30.01 in 0.2 mi SW 5.8 mph - N/A Fog Fog
7:15 AM 62.6 °F 62.6 °F 100% 30.02 in 0.2 mi SSW 10.4 mph - N/A Fog , Thunderstorm Fog
7:35 AM 62.6 °F 62.6 °F 100% 30.02 in 0.2 mi SSW 9.2 mph - N/A Fog , Thunderstorm Unknown
7:55 AM 62.6 °F 62.6 °F 100% 30.03 in 0.2 mi SW 9.2 mph - N/A Fog , Thunderstorm Fog
8:15 AM 62.6 °F 62.6 °F 100% 30.03 in 1.8 mi SSW 8.1 mph - N/A   Overcast
8:35 AM 62.6 °F 62.6 °F 100% 30.03 in 10.0 mi SSW 9.2 mph - N/A   Scattered Clouds
8:55 AM 64.4 °F 64.4 °F 100% 30.04 in 10.0 mi SSW 6.9 mph - N/A   Scattered Clouds
9:15 AM 66.2 °F 64.4 °F 94% 30.04 in 10.0 mi South 6.9 mph - N/A   Overcast
9:35 AM 64.4 °F 64.4 °F 100% 30.04 in 10.0 mi SSW 8.1 mph - N/A   Overcast
9:55 AM 66.2 °F 64.4 °F 94% 30.03 in 10.0 mi SSW 6.9 mph - N/A   Overcast
10:15 AM 68.0 °F 64.4 °F 88% 30.03 in 10.0 mi SSW 8.1 mph - N/A   Mostly Cloudy
10:35 AM 69.8 °F 66.2 °F 88% 30.03 in 10.0 mi SSW 8.1 mph - N/A   Mostly Cloudy
10:55 AM 69.8 °F 68.0 °F 94% 30.03 in 10.0 mi South 8.1 mph - N/A   Overcast
11:15 AM 69.8 °F 66.2 °F 88% 30.03 in 10.0 mi SSW 9.2 mph - N/A   Overcast
11:35 AM 71.6 °F 68.0 °F 88% 30.03 in 10.0 mi SSW 9.2 mph - N/A   Scattered Clouds
11:55 AM 71.6 °F 68.0 °F 88% 30.04 in 10.0 mi SSW 9.2 mph - N/A   Scattered Clouds
12:15 PM 71.6 °F 68.0 °F 88% 30.04 in 10.0 mi SSW 8.1 mph - N/A   Mostly Cloudy
12:35 PM 73.4 °F 68.0 °F 83% 30.04 in 10.0 mi SSW 6.9 mph - N/A   Mostly Cloudy
12:55 PM 73.4 °F 68.0 °F 83% 30.04 in 10.0 mi SSW 6.9 mph - N/A   Scattered Clouds
1:15 PM 73.4 °F 68.0 °F 83% 30.04 in 10.0 mi SW 5.8 mph - N/A   Mostly Cloudy
1:35 PM 75.2 °F 68.0 °F 78% 30.04 in 10.0 mi SSW 6.9 mph - N/A   Scattered Clouds
1:55 PM 77.0 °F 68.0 °F 74% 30.03 in 10.0 mi SW 4.6 mph - N/A   Scattered Clouds
2:15 PM 77.0 °F 68.0 °F 74% 30.04 in 10.0 mi SSW 6.9 mph - N/A   Scattered Clouds
2:35 PM 77.0 °F 68.0 °F 74% 30.03 in 10.0 mi South 6.9 mph - N/A   Scattered Clouds
2:55 PM 77.0 °F 68.0 °F 74% 30.02 in 10.0 mi South 9.2 mph - N/A   Mostly Cloudy
3:15 PM 77.0 °F 68.0 °F 74% 30.02 in 10.0 mi South 8.1 mph - N/A   Scattered Clouds
3:35 PM 75.2 °F 68.0 °F 78% 30.01 in 10.0 mi SSE 5.8 mph - N/A   Mostly Cloudy
3:55 PM 77.0 °F 68.0 °F 74% 30.01 in 10.0 mi South 9.2 mph - N/A   Mostly Cloudy
4:15 PM 77.0 °F 68.0 °F 74% 30.00 in 10.0 mi SSW 8.1 mph - N/A   Scattered Clouds
4:35 PM 77.0 °F 68.0 °F 74% 30.00 in 10.0 mi SW 5.8 mph - N/A   Scattered Clouds
4:55 PM 77.0 °F 68.0 °F 74% 30.00 in 10.0 mi South 6.9 mph - N/A Thunderstorm Mostly Cloudy
5:15 PM 77.0 °F 68.0 °F 74% 30.00 in 10.0 mi South 6.9 mph - N/A Thunderstorm Thunderstorm
5:35 PM 73.4 °F 68.0 °F 83% 30.00 in 10.0 mi NNW 8.1 mph - N/A Thunderstorm Overcast
5:55 PM 71.6 °F 64.4 °F 78% 30.00 in 10.0 mi NNW 4.6 mph - N/A Thunderstorm Overcast
6:15 PM 71.6 °F 64.4 °F 78% 30.00 in 10.0 mi Calm Calm - N/A   Mostly Cloudy
6:35 PM 71.6 °F 64.4 °F 78% 30.00 in 10.0 mi Calm Calm - N/A   Overcast
6:55 PM 69.8 °F 66.2 °F 88% 30.00 in 10.0 mi Calm Calm - N/A Rain Light Rain
7:15 PM 69.8 °F 66.2 °F 88% 30.01 in 10.0 mi Calm Calm - N/A   Overcast
7:35 PM 69.8 °F 64.4 °F 83% 30.01 in 10.0 mi Calm Calm - N/A   Mostly Cloudy
7:55 PM 68.0 °F 66.2 °F 94% 30.00 in 10.0 mi Calm Calm - N/A Thunderstorm Mostly Cloudy
8:15 PM 68.0 °F 66.2 °F 94% 30.01 in 10.0 mi Calm Calm - N/A Thunderstorm Thunderstorm
8:35 PM 68.0 °F 66.2 °F 94% 30.01 in 10.0 mi NW 3.5 mph - N/A   Clear
8:55 PM 68.0 °F 64.4 °F 88% 30.01 in 10.0 mi Calm Calm - N/A   Mostly Cloudy
9:15 PM 66.2 °F 64.4 °F 94% 30.01 in 10.0 mi East 3.5 mph - N/A   Mostly Cloudy
9:35 PM 68.0 °F 66.2 °F 94% 30.01 in 10.0 mi East 3.5 mph - N/A   Overcast
9:55 PM 68.0 °F 66.2 °F 94% 30.02 in 5.0 mi Calm Calm - N/A   Overcast
10:15 PM 68.0 °F 66.2 °F 94% 30.01 in 5.0 mi Calm Calm - N/A   Overcast
10:35 PM 68.0 °F 68.0 °F 100% 30.01 in 5.0 mi East 3.5 mph - N/A   Overcast
10:55 PM 68.0 °F 68.0 °F 100% 30.00 in 4.0 mi East 3.5 mph - N/A   Overcast
11:15 PM 68.0 °F 68.0 °F 100% 30.00 in 7.0 mi Calm Calm - N/A   Overcast
11:35 PM 68.0 °F 66.2 °F 94% 30.00 in 10.0 mi South 3.5 mph - N/A   Overcast
11:55 PM 68.0 °F 66.2 °F 94% 29.99 in 10.0 mi South 3.5 mph - N/A   Overcast